Location: Recife
(8.0585°S, 34.8848°W)
Time: 10:30:30
(UTC-03:00)

Courier 1B Rocket - Pass Details

Date: 15 April 2026
Orbit: 920 x 1201 km, 28.2° (Epoch: 13 May)

Event Time Altitude Azimuth Distance (km) Brightness Sun altitude
Rises 06:38:24 0° 266° (W) 3,648 7.4 17.7°
Reaches altitude 10° 06:41:28 10° 253° (WSW) 2,743 6.8 18.5°
Maximum altitude 06:46:53 26° 198° (SSW) 1,914 6.4 19.8°
Drops below altitude 10° 06:52:38 10° 144° (SE) 2,916 7.9 21.2°
Sets 06:56:01 0° 132° (SE) 3,925 8.6 22.0°
